Palm Springs, CA

10:13 AM PDT on July 26, 2017 (GMT -0700)
Palm Springs International

Weather History for KPSP - January, 2011

Change the Weather History Date:

Saturday, January 22, 2011

  Actual Average Record
Temperature  
Mean Temperature 62 °F 58 °F  
Max Temperature 78 °F 70 °F 89 °F (1948)
Min Temperature 46 °F 46 °F 19 °F (1937)
Degree Days  
Heating Degree Days 3 7  
Month to date heating degree days 173 178  
Since 1 July heating degree days 498 564  
Cooling Degree Days 0 0  
Month to date cooling degree days 20 0  
Year to date cooling degree days 20 0  
Growing Degree Days 12 (Base 50)    
Moisture  
Dew Point 30 °F    
Average Humidity 37    
Maximum Humidity 60    
Minimum Humidity 14    
Precipitation  
Precipitation 0.00 in 0.03 in 1.93 in (1943)
Month to date precipitation 0.01 0.86  
Year to date precipitation 0.01 0.86  
Since 1 July precipitation 4.28  
Snow  
Snow 0.00 in - - ()
Month to date snowfall 0.0  
Year to date snowfall 0.0  
Snow Depth 0.00 in    
Sea Level Pressure  
Sea Level Pressure 29.92 in    
Wind  
Wind Speed 4 mph (NW)    
Max Wind Speed 12 mph    
Max Gust Speed 15 mph    
Visibility 10 miles    
Events      
T = Trace of Precipitation, MM = Missing Value Source: NWS Daily Summary

Daily Weather History Graph

Daily Weather History Graph

Search for Another Location

Airport or City:

Trip Planner

Search our weather history database for the weather conditions in past years. The results will help you decide how hot, cold, wet, or windy it might be!

Date:

Astronomy

Jan. 22, 2011 Rise Set
Actual Time 6:48 AM PST 5:06 PM PST
Civil Twilight 6:21 AM PST 5:33 PM PST
Nautical Twilight 5:51 AM PST 6:04 PM PST
Astronomical Twilight 5:21 AM PST 6:33 PM PST
Moon 8:47 PM PST (1/22) 8:28 AM PST (1/22)
Length of Visible Light 11h 11m
Length of Day
10h 18m
Waning Gibbous, 88% of the Moon is Illuminated
Jan 22
Waning Gibbous
Jan 26
Last Quarter
Feb 2
New
Feb 10
First Quarter
Feb 18
Full

Hourly Weather History & Observations

Time (PST) Temp. Dew Point Humidity Pressure Visibility Wind Dir Wind Speed Gust Speed Precip Events Conditions
12:53 AM 55.9 °F 25.0 °F 30% 29.97 in 10.0 mi NNW 6.9 mph - N/A   Clear
1:53 AM 57.0 °F 24.1 °F 28% 29.96 in 10.0 mi NW 6.9 mph - N/A   Clear
2:53 AM 55.9 °F 24.1 °F 29% 29.94 in 10.0 mi NW 5.8 mph - N/A   Clear
3:53 AM 54.0 °F 26.1 °F 34% 29.93 in 10.0 mi NW 5.8 mph - N/A   Clear
4:53 AM 54.0 °F 26.1 °F 34% 29.92 in 10.0 mi NNW 11.5 mph - N/A   Clear
5:53 AM 46.9 °F 33.1 °F 59% 29.93 in 10.0 mi Calm Calm - N/A   Clear
6:53 AM 46.9 °F 34.0 °F 61% 29.95 in 10.0 mi Calm Calm - N/A   Clear
7:53 AM 51.1 °F 36.0 °F 56% 29.96 in 10.0 mi Calm Calm - N/A   Clear
8:53 AM 59.0 °F 32.0 °F 36% 29.96 in 10.0 mi Calm Calm - N/A   Clear
9:53 AM 64.0 °F 28.0 °F 26% 29.97 in 10.0 mi Variable 3.5 mph - N/A   Clear
10:53 AM 68.0 °F 25.0 °F 20% 29.95 in 10.0 mi ENE 4.6 mph - N/A   Clear
11:53 AM 72.0 °F 25.0 °F 17% 29.91 in 10.0 mi East 3.5 mph - N/A   Clear
12:53 PM 75.0 °F 23.0 °F 14% 29.88 in 10.0 mi Calm Calm - N/A   Clear
1:53 PM 75.0 °F 27.0 °F 17% 29.85 in 10.0 mi SSE 3.5 mph - N/A   Clear
2:53 PM 77.0 °F 27.0 °F 16% 29.85 in 10.0 mi Calm Calm - N/A   Clear
3:53 PM 77.0 °F 28.0 °F 17% 29.85 in 10.0 mi Calm Calm - N/A   Clear
4:53 PM 71.1 °F 35.1 °F 27% 29.86 in 10.0 mi SW 3.5 mph - N/A   Clear
5:53 PM 69.1 °F 34.0 °F 27% 29.89 in 10.0 mi North 5.8 mph - N/A   Clear
6:53 PM 66.0 °F 36.0 °F 33% 29.90 in 10.0 mi SW 5.8 mph - N/A   Clear
7:53 PM 64.9 °F 33.1 °F 31% 29.91 in 10.0 mi SW 4.6 mph - N/A   Clear
8:53 PM 64.0 °F 33.1 °F 31% 29.92 in 10.0 mi NW 3.5 mph - N/A   Clear
9:53 PM 66.0 °F 32.0 °F 28% 29.94 in 10.0 mi Variable 5.8 mph - N/A   Clear
10:53 PM 64.0 °F 30.9 °F 29% 29.95 in 10.0 mi Variable 5.8 mph - N/A   Clear
11:53 PM 63.0 °F 30.9 °F 30% 29.97 in 10.0 mi WNW 4.6 mph - N/A   Clear